Content
SEND FEEDBACK

Daily
Averages
Monthly
Summary
United States of America

MOLALLA, OREGON


Home > North America > United States > Oregon
Elevation: 2549 feet     Latitude: 44 57N     Longitude: 122 30W

WEATHER
 
SELECT A DAY
Number of Records: 249,762;   Date Range: 1/1/95 - 8/28/14
 
SHARE

PRINT THIS DATA

[ ← Previous Day ]
WEATHER ALMANAC - JANUARY 31, 2013
[ Next Day → ]
[ °C ]   °F
Weather ElementAverageHighLow
Temperature46.9 °F53.1 °F (3:53 pm)44.1 °F (5:53 am)
Dewpoint44.5 °F46.4 °F (12:27 pm)43 °F (2:53 pm)
Humidity92 %100 % (1:35 am)69 % (3:53 pm)
Barometer30.42 in30.47 in (1:35 am)30.35 in (6:53 pm)
Wind Speed0.8 mph4.6 mph (9:28 am)
Weather ElementAverage
Visibility6.5 mi
Wind DirectionNNE (32.3 °)

Weather ElementTotal
Precipitation---
Heating Degree Days16.4 (Base 65)
Averaged from 40 records on January 31, 2013
WEATHER CONDITIONS BREAKOUT
WIND DIRECTION BREAKOUT
WEATHER BY HOUR - JANUARY 31, 2013
[ °C ]   °F
Local TimeTemperatureDewpointHumidityBarometerVisibilityWind DirectionWind SpeedGust SpeedPrecipitationEventsConditions
1:35 AM44.6 °F44.6 °F100 %30.47 in2.5 miSouth (180°)3.5 mphOvercast
1:43 AM44.6 °F44.6 °F100 %30.47 in5.0 miCalmOvercast
1:53 AM45.0 °F45.0 °F100 %30.47 in6.0 miCalmOvercast
2:53 AM46.0 °F45.0 °F96 %30.46 in9.0 miCalmOvercast
3:53 AM45.0 °F45.0 °F100 %30.45 in4.0 miCalmOvercast
4:50 AM44.6 °F44.6 °F100 %30.44 in9.0 miCalmOvercast
4:53 AM45.0 °F45.0 °F100 %30.45 in9.0 miCalmOvercast
5:27 AM44.6 °F44.6 °F100 %30.43 in5.0 miCalmOvercast
5:38 AM44.6 °F44.6 °F100 %30.44 in9.0 miCalmOvercast
5:53 AM44.1 °F44.1 °F100 %30.44 in7.0 miSW (230°)3.5 mphOvercast
6:42 AM44.6 °F44.6 °F100 %30.44 in5.0 miCalmOvercast
6:53 AM44.1 °F44.1 °F100 %30.44 in5.0 miCalmOvercast
7:15 AM44.6 °F44.6 °F100 %30.43 in5.0 miCalmOvercast
7:48 AM44.6 °F44.6 °F100 %30.44 in2.0 miCalmOvercast
7:53 AM44.1 °F44.1 °F100 %30.44 in1.2 miCalmOvercast
8:00 AM44.6 °F44.6 °F100 %30.44 in0.2 miCalmFogFog
8:53 AM44.1 °F44.1 °F100 %30.45 in0.2 miCalmFogFog
9:28 AM44.6 °F44.6 °F100 %30.44 in0.5 miSouth (190°)4.6 mphFogFog
9:38 AM44.6 °F44.6 °F100 %30.44 in0.2 miSSE (160°)3.5 mphFogFog
9:53 AM44.1 °F44.1 °F100 %30.45 in0.2 miCalmFogFog
10:05 AM44.6 °F44.6 °F100 %30.44 in0.8 miSSE (150°)3.5 mphMist
10:14 AM44.6 °F44.6 °F100 %30.44 in1.2 miCalmOvercast
10:21 AM44.6 °F44.6 °F100 %30.44 in3.0 miCalmOvercast
10:53 AM46.0 °F46.0 °F100 %30.44 in10.0 miVariable3.5 mphOvercast
11:11 AM46.4 °F44.6 °F93 %30.43 in10.0 miCalmOvercast
11:53 AM48.9 °F46.0 °F90 %30.43 in10.0 miCalmOvercast
12:27 PM50.0 °F46.4 °F87 %30.40 in10.0 miCalmScattered Clouds
12:53 PM50.0 °F45.0 °F83 %30.40 in10.0 miCalmMostly Cloudy
1:05 PM50.0 °F44.6 °F82 %30.40 in10.0 miCalmMostly Cloudy
1:53 PM51.1 °F45.0 °F80 %30.39 in10.0 miCalmOvercast
2:01 PM51.8 °F44.6 °F76 %30.38 in10.0 miCalmOvercast
2:53 PM52.0 °F43.0 °F71 %30.38 in10.0 miVariable3.5 mphOvercast
3:53 PM53.1 °F43.0 °F69 %30.38 in10.0 miSW (220°)3.5 mphOvercast
4:53 PM52.0 °F43.0 °F71 %30.37 in10.0 miCalmOvercast
5:53 PM51.1 °F43.0 °F74 %30.36 in10.0 miCalmOvercast
6:53 PM50.0 °F43.0 °F77 %30.35 in10.0 miSSE (160°)4.6 mphOvercast
7:53 PM50.0 °F44.1 °F80 %30.36 in10.0 miCalmOvercast
8:53 PM48.9 °F44.1 °F83 %30.36 in10.0 miCalmOvercast
9:53 PM48.9 °F44.1 °F83 %30.36 in10.0 miCalmOvercast
10:53 PM48.9 °F44.1 °F83 %30.37 in10.0 miCalmOvercast
Hourly data recorded from KUAO, located miles away from Molalla, Oregon







STORIES FROM OUR PARTNERS